Content
SEND FEEDBACK

Daily
Averages
Monthly
Summary
United States of America

PUT IN BAY, OHIO


Home > North America > United States > Ohio
Elevation: 561 feet     Latitude: 41 39N     Longitude: 082 48W

WEATHER
 
SELECT A DAY
Number of Records: 125,284;   Date Range: 12/10/00 - 11/26/14
 
SHARE

PRINT THIS DATA

[ ← Previous Day ]
WEATHER ALMANAC - JUNE 9, 2014
[ Next Day → ]
[ °C ]   °F
Weather ElementAverageHighLow
Temperature64.7 °F74.3 °F (4:00 pm)56.1 °F (6:00 am)
Dewpoint55.4 °F58.8 °F (11:00 pm)52 °F (2:00 pm)
Humidity72.7 %93 % (6:00 am)38 % (2:00 pm)
Barometer29.96 in29.99 in (9:00 am)29.92 in (5:00 pm)
Wind Speed5.4 mph10.4 mph (1:00 pm)
Weather ElementAverage
Wind DirectionENE (79.6 °)

Weather ElementTotal
Precipitation---
Cooling Degree Days0.2 (Base 65)
Growing Degree Days15.2 (Base 50)
Averaged from 25 records on June 9, 2014
WEATHER CONDITIONS BREAKOUT
WIND DIRECTION BREAKOUT
WEATHER BY HOUR - JUNE 9, 2014
[ °C ]   °F
Local TimeTemperatureDewpointHumidityBarometerVisibilityWind DirectionWind SpeedGust SpeedPrecipitationEventsConditions
1:00 AM59.0 °F52.9 °F80 %29.97 inNNE (20°)4.6 mph
2:00 AM59.0 °F54.0 °F80 %29.98 inNorth (10°)6.9 mph
2:00 AM58.8 °F52.7 °F80 %29.98 inNorth (10°)6.9 mph
3:00 AM57.9 °F55.0 °F90 %29.97 inNorth (10°)4.6 mph
4:00 AM57.9 °F54.9 °F90 %29.96 inNorth (10°)4.6 mph
5:00 AM56.5 °F52.7 °F87 %29.95 inNorth (10°)3.5 mph
6:00 AM56.1 °F54.1 °F93 %29.96 inNorth (10°)3.5 mph
7:00 AM57.2 °F54.9 °F92 %29.97 inNNE (20°)4.6 mph
8:00 AM59.0 °F56.0 °F86 %29.98 inNNE (20°)8.1 mph
8:00 AM59.0 °F55.9 °F90 %29.98 inNNE (20°)8.1 mph
9:00 AM61.5 °F57.2 °F86 %29.99 inNE (50°)6.9 mph
10:00 AM64.4 °F55.2 °F72 %29.99 inNE (40°)4.6 mph
11:00 AM68.2 °F54.7 °F62 %29.98 inNE (40°)5.8 mph
1:00 PM70.7 °F56.1 °F60 %29.99 inSouth (190°)10.4 mph
2:00 PM72.0 °F52.0 °F38 %29.97 inSSE (160°)6.9 mph
2:00 PM72.3 °F52.0 °F49 %29.97 inSSE (160°)6.9 mph
4:00 PM74.3 °F54.3 °F50 %29.93 inNE (50°)1.2 mph
5:00 PM72.5 °F55.0 °F54 %29.92 inSouth (170°)9.2 mph
6:00 PM74.1 °F57.6 °F56 %29.93 inSSW (210°)3.5 mph
7:00 PM72.1 °F57.0 °F59 %29.93 inSouth (180°)9.2 mph
8:00 PM71.0 °F58.0 °F56 %29.92 inSouth (170°)4.6 mph
8:00 PM70.9 °F58.5 °F65 %29.92 inSouth (170°)4.6 mph
9:00 PM66.6 °F57.0 °F71 %29.93 inSouth (170°)3.5 mph
10:00 PM64.2 °F58.5 °F82 %29.92 inEast (90°)1.2 mph
11:00 PM62.2 °F58.8 °F89 %29.93 inCalm
Hourly data recorded from CXHA, located miles away from Put In Bay, Ohio







STORIES FROM OUR PARTNERS